(431394) = 2007 FS35

Discovered at Kitt Peak on 2007-03-20 by Spacewatch.

Orbit

Orbit type: Amor
Near-Earth Object

Note: WebGL enabled browser required.

epoch2023-02-25.0
epoch JD2460000.5
perihelion date2020-12-27.14062
perihelion JD2459210.64062
argument of perihelion (°)107.45313
ascending node (°)182.94629
inclination (°)0.31978
eccentricity0.3896997
perihelion distance (AU)1.1733620
Tisserand w.r.t. Jupiter3.8
ΔV w.r.t. Earth (km/sec)6.1
semimajor axis (AU)1.9225977
mean anomaly (°)292.02564
mean daily motion (°/day)0.36971850
aphelion distance (AU)2.672
period (years)2.67
P-vector [x]0.34856190
P-vector [y]-0.86204687
P-vector [z]-0.36793994
Q-vector [x]0.93728572
Q-vector [y]0.32046157
Q-vector [z]0.13711259
absolute magnitude19.54
phase slope0.15
uncertainty0
referenceMPO 745323
observations used163
oppositions7
arc length (days)8824
first opposition used1999
last opposition used2023
residual rms (arc-secs)0.84
perturbers coarse indicatorM-v
perturbers precise indicator003Ek
first observation date used1999-04-12.0
last observation date used2023-06-09.0
computer nameMPCLINUX
Minimum Orbit Intersection Distances (in AU)
for orbit epoch: 2460000.5, reference: E2023-MF4
Mercury0.72335
Venus0.44687
Earth0.15637
Mars0.02121
Jupiter2.52236
Saturn6.41308
Uranus15.9814
Neptune27.4965

Observations

167 total observations over interval: 1999 04 12.25932 – 2023 06 09.216832
These data are available for download (format description).

Date (UT) J2000 RA J2000 Dec Magn Location Ref
1999 04 12.25932 12 03 17.66 -00 13 32.5 21.0 V 691 – Steward Observatory, Kitt Peak-Spacewatch MPS 208174
1999 04 12.28092 12 03 15.86 -00 13 21.0 21.2 V 691 – Steward Observatory, Kitt Peak-Spacewatch MPS 208174
1999 04 12.30198 12 03 14.13 -00 13 09.2 20.5 V 691 – Steward Observatory, Kitt Peak-Spacewatch MPS 208174
2006 02 02.29316 05 00 03.30 +22 17 44.1   568 – Maunakea MPS 306644
2006 02 02.33046 05 00 02.91 +22 17 44.0   568 – Maunakea MPS 306644
2006 02 02.36777 05 00 02.50 +22 17 43.7   568 – Maunakea MPS 306644
2006 02 03.30463 04 59 55.19 +22 17 42.3   568 – Maunakea MPS 306644
2007 03 20.25667 12 39 26.20 -04 13 56.3 21.1 V 691 – Steward Observatory, Kitt Peak-Spacewatch MPS 205638
2007 03 20.27438 12 39 24.97 -04 13 47.9 20.9 V 691 – Steward Observatory, Kitt Peak-Spacewatch MPS 205638
2007 03 20.29211 12 39 23.76 -04 13 40.7 20.7 V 691 – Steward Observatory, Kitt Peak-Spacewatch MPS 205638
2007 03 26.25088 12 32 22.32 -03 26 52.0 20.8 V 691 – Steward Observatory, Kitt Peak-Spacewatch MPS 205638
2007 03 26.26853 12 32 20.95 -03 26 43.2 20.7 V 691 – Steward Observatory, Kitt Peak-Spacewatch MPS 205638
2007 03 26.28618 12 32 19.55 -03 26 34.3 20.8 V 691 – Steward Observatory, Kitt Peak-Spacewatch MPS 205638
2007 03 26.40225 12 32 10.34 -03 25 35.8   291 – LPL/Spacewatch II MPS 205638
2007 03 26.40609 12 32 10.05 -03 25 33.9   291 – LPL/Spacewatch II MPS 205638
2007 03 26.41014 12 32 09.72 -03 25 31.7   291 – LPL/Spacewatch II MPS 205638
2007 03 26.95838 12 31 28.47 -03 20 57.7   J95 – Great Shefford MPS 205638
2007 03 26.96984 12 31 27.60 -03 20 52.0   J95 – Great Shefford MPS 205638
2007 03 27.06847 12 31 19.86 -03 20 00.9   J95 – Great Shefford MPS 205638
2007 03 29.24622 12 28 31.08 -03 01 06.0   291 – LPL/Spacewatch II MPS 205638
2007 03 29.25006 12 28 30.72 -03 01 04.1   291 – LPL/Spacewatch II MPS 205638
2007 03 29.25380 12 28 30.43 -03 01 01.9   291 – LPL/Spacewatch II MPS 205638
2007 03 29.42090 12 28 16.58 -02 59 33.9 20.7 V 291 – LPL/Spacewatch II MPS 205638
2007 03 29.42461 12 28 16.29 -02 59 31.7 20.8 V 291 – LPL/Spacewatch II MPS 205638
2007 03 29.42831 12 28 15.98 -02 59 30.1 21.0 V 291 – LPL/Spacewatch II MPS 205638
2007 04 07.26817 12 16 12.14 -01 38 24.5 20.7 V G96 – Mt. Lemmon Survey MPS 206294
2007 04 07.27449 12 16 11.60 -01 38 21.3 20.4 V G96 – Mt. Lemmon Survey MPS 206294
2007 04 07.28089 12 16 11.06 -01 38 17.5 20.5 V G96 – Mt. Lemmon Survey MPS 206294
2007 04 07.28715 12 16 10.48 -01 38 14.2 20.6 V G96 – Mt. Lemmon Survey MPS 206294
2007 04 08.23184 12 14 52.28 -01 29 25.3   291 – LPL/Spacewatch II MPS 206294
2007 04 08.23598 12 14 51.92 -01 29 23.0   291 – LPL/Spacewatch II MPS 206294
2007 04 08.25046 12 14 50.63 -01 29 14.9   291 – LPL/Spacewatch II MPS 206294
2007 04 11.21425 12 10 46.84 -01 01 47.6 21.5 V 291 – LPL/Spacewatch II MPS 206294
2007 04 11.21822 12 10 46.54 -01 01 45.1 21.5 V 291 – LPL/Spacewatch II MPS 206294
2007 04 11.22209 12 10 46.20 -01 01 42.9 21.6 V 291 – LPL/Spacewatch II MPS 206294
2007 04 11.85959 12 09 54.52 -00 55 55.7   246 – Klet Observatory-KLENOT MPS 206294
2007 04 11.86145 12 09 54.31 -00 55 53.8   246 – Klet Observatory-KLENOT MPS 206294
2007 04 11.86276 12 09 54.23 -00 55 53.5   246 – Klet Observatory-KLENOT MPS 206294
2007 04 11.86591 12 09 53.96 -00 55 51.9   246 – Klet Observatory-KLENOT MPS 206294
2007 04 11.86747 12 09 53.82 -00 55 51.4   246 – Klet Observatory-KLENOT MPS 206294
2007 04 14.22211 12 06 45.53 -00 34 34.1 21.1 V 291 – LPL/Spacewatch II MPS 207000
2007 04 14.22613 12 06 45.19 -00 34 32.4 21.0 V 291 – LPL/Spacewatch II MPS 207000
2007 04 14.22994 12 06 44.89 -00 34 29.7 21.1 V 291 – LPL/Spacewatch II MPS 207000
2007 04 15.25752 12 05 24.43 -00 25 26.4 20.4 V G96 – Mt. Lemmon Survey MPS 207000
2007 04 15.26631 12 05 23.71 -00 25 21.7 20.4 V G96 – Mt. Lemmon Survey MPS 207000
2007 04 15.27521 12 05 22.95 -00 25 16.6 20.1 V G96 – Mt. Lemmon Survey MPS 207000
2007 04 15.28399 12 05 22.27 -00 25 12.5 20.5 V G96 – Mt. Lemmon Survey MPS 207000
2007 04 23.22081 11 55 58.29 +00 38 42.0 21.1 V G96 – Mt. Lemmon Survey MPS 208174
2007 04 23.22632 11 55 57.93 +00 38 44.5 21.1 V G96 – Mt. Lemmon Survey MPS 208174
2007 04 23.23183 11 55 57.54 +00 38 46.3 20.7 V G96 – Mt. Lemmon Survey MPS 208174
2007 04 23.23738 11 55 57.18 +00 38 48.9 20.5 V G96 – Mt. Lemmon Survey MPS 208174
2007 04 23.25324 11 55 56.09 +00 38 56.0   696 – Whipple Observatory, Mt. Hopkins MPS 208174
2007 04 23.27068 11 55 54.89 +00 39 03.5   696 – Whipple Observatory, Mt. Hopkins MPS 208174
2007 05 10.18905 11 44 14.74 +01 59 55.3 20.7 V G96 – Mt. Lemmon Survey MPS 209059
2007 05 10.19572 11 44 14.67 +01 59 56.4 20.6 V G96 – Mt. Lemmon Survey MPS 209059
2007 05 10.20259 11 44 14.49 +01 59 57.0 20.4 V G96 – Mt. Lemmon Survey MPS 209059
2007 05 10.20941 11 44 14.31 +01 59 57.4 20.6 V G96 – Mt. Lemmon Survey MPS 209059
2007 06 11.17684 11 59 45.40 +00 25 43.7   291 – LPL/Spacewatch II MPS 210725
2007 06 11.18052 11 59 45.64 +00 25 41.5   291 – LPL/Spacewatch II MPS 210725
2007 06 11.18494 11 59 45.95 +00 25 39.7   291 – LPL/Spacewatch II MPS 210725
2010 11 08.480218 02 59 38.014 +16 33 45.97 21.42 w F51 – Pan-STARRS 1, Haleakala MPS 365686
2010 11 08.492968 02 59 36.845 +16 33 41.19 21.38 w F51 – Pan-STARRS 1, Haleakala MPS 365686
2010 11 08.507172 02 59 35.548 +16 33 35.82 21.24 w F51 – Pan-STARRS 1, Haleakala MPS 365686
2010 11 08.519856 02 59 34.386 +16 33 30.87 21.33 w F51 – Pan-STARRS 1, Haleakala MPS 365686
2010 11 10.28818 02 57 00.28 +16 22 24.5 19.9 V G96 – Mt. Lemmon Survey MPS 355468
2010 11 10.29393 02 56 59.74 +16 22 21.3 20.8 V G96 – Mt. Lemmon Survey MPS 355468
2010 11 10.29966 02 56 59.20 +16 22 19.5 20.7 V G96 – Mt. Lemmon Survey MPS 355468
2010 11 10.30537 02 56 58.77 +16 22 17.6 20.7 V G96 – Mt. Lemmon Survey MPS 355468
2015 03 16.21671 12 48 23.58 -05 11 04.3 21.3 V 807 – Cerro Tololo Observatory, La Serena MPS 606366
2015 03 16.22578 12 48 23.03 -05 11 00.4 21.4 V 807 – Cerro Tololo Observatory, La Serena MPS 606366
2015 03 16.23504 12 48 22.49 -05 10 57.0 21.2 V 807 – Cerro Tololo Observatory, La Serena MPS 606366
2015 03 16.40812 12 48 12.83 -05 10 04.4 21.1 V G96 – Mt. Lemmon Survey MPS 587130
2015 03 16.41323 12 48 12.52 -05 10 02.8 21.1 V G96 – Mt. Lemmon Survey MPS 587130
2015 03 16.41833 12 48 12.23 -05 10 00.6 20.6 V G96 – Mt. Lemmon Survey MPS 587130
2015 03 16.42344 12 48 11.92 -05 09 58.5 21.0 V G96 – Mt. Lemmon Survey MPS 587130
2015 03 21.73630 12 42 50.19 -04 34 25.7 20.9 R D29 – Purple Mountain Observatory, XuYi Station MPS 592374
2015 03 21.76452 12 42 48.28 -04 34 14.6 20.4 R D29 – Purple Mountain Observatory, XuYi Station MPS 592374
2015 03 24.28653 12 39 56.49 -04 15 11.1 20.2 V G96 – Mt. Lemmon Survey MPS 592374
2015 03 24.29163 12 39 56.10 -04 15 08.7 20.9 V G96 – Mt. Lemmon Survey MPS 592374
2015 03 24.29673 12 39 55.72 -04 15 06.6 20.7 V G96 – Mt. Lemmon Survey MPS 592374
2015 03 24.30184 12 39 55.35 -04 15 04.0 21.2 V G96 – Mt. Lemmon Survey MPS 592374
2015 03 27.34741 12 36 13.19 -03 50 27.2 20.9 V 703 – Catalina Sky Survey MPS 592374
2015 03 27.35600 12 36 12.49 -03 50 23.1 20.1 V 703 – Catalina Sky Survey MPS 592374
2015 03 27.36721 12 36 11.63 -03 50 17.1 19.9 V 703 – Catalina Sky Survey MPS 592374
2015 03 27.37580 12 36 10.94 -03 50 12.6 20.8 V 703 – Catalina Sky Survey MPS 592374
2015 03 30.38213 12 32 19.772 -03 24 24.35 20.0 i F51 – Pan-STARRS 1, Haleakala MPS 595314
2015 03 30.39399 12 32 18.786 -03 24 18.31 19.8 i F51 – Pan-STARRS 1, Haleakala MPS 595314
2015 03 30.40588 12 32 17.800 -03 24 12.12 19.7 i F51 – Pan-STARRS 1, Haleakala MPS 595314
2015 04 11.20747 12 16 10.73 -01 35 53.9 20.4 V G96 – Mt. Lemmon Survey MPS 600663
2015 04 11.21224 12 16 10.32 -01 35 51.3 20.5 V G96 – Mt. Lemmon Survey MPS 600663
2015 04 11.21698 12 16 09.90 -01 35 48.9 20.8 V G96 – Mt. Lemmon Survey MPS 600663
2015 04 11.22176 12 16 09.48 -01 35 46.2 20.4 V G96 – Mt. Lemmon Survey MPS 600663
2015 04 13.38267 12 13 13.479 -01 15 55.93 20.6 w F51 – Pan-STARRS 1, Haleakala MPS 600663
2015 04 13.39353 12 13 12.556 -01 15 50.05 20.5 w F51 – Pan-STARRS 1, Haleakala MPS 600663
2015 04 13.40435 12 13 11.629 -01 15 44.18 20.5 w F51 – Pan-STARRS 1, Haleakala MPS 600663
2015 04 13.41519 12 13 10.723 -01 15 38.35 20.4 w F51 – Pan-STARRS 1, Haleakala MPS 600663
2015 04 17.19611 12 08 13.82 -00 42 07.8 20.6 r G45 – Space Surveillance Telescope, Atom Site MPS 604595
2015 04 17.20275 12 08 13.30 -00 42 04.4 20.4 r G45 – Space Surveillance Telescope, Atom Site MPS 604595
